Starlink 32788

operational
NORAD ID: 62502 Int'l Des: 2025-003 Owner: SPXS Country: US Constellation: starlink
LEOCIRCULAR

关于 Starlink 32788

正在加载描述...

实时位置

正在加载3D地球...

即将过境

高度历史

Altitude vs Time

uPlot chart will show altitude changes over time

两行轨道根数

1 62502U 25003R 26033.32259388 .00022537 00000-0 82565-3 0 9997
2 62502 43.0015 128.6160 0001382 251.2058 108.8644 15.27593706 61149
Epoch: Feb 2, 2026 • Age: 26 hours

当前状态

高度 494.6 km
速度 7.62 km/s
星下点 -41.36°S, 127.55°E
发射日期 Jan 6, 2025
运行时间 1 years
类型 internet

技术详情

分类 Payload
质量 730.00 kg
干质量 700.00 kg
总质量 730.00 kg
长度 0.30 m
直径 4.10 m
跨度 29.00 m
形状 Box + pan
制造商 SPXS
平台类型 Starlink V2M
阶段状态 In Orbit
所有者/国家 SPXS/US

大型星座

Loading constellations...